Wind_Speed
11 12 13 13 13 13 12 11 11 10 9 8 7 6 6 6 6 7 8 8 8 9 10 10 11 12 13 14 15 15 15 16 18 19 18 19 18 18 17 16 16 15 14
11 12 13 14 14 13 13 12 11 10 9 8 7 6 6 6 6 6 7 8 8 9 9 10 11 12 13 14 15 15 14 15 16 18 19 19 19 18 18 18 17 16 15
12 13 13 14 14 14 13 12 12 11 10 9 8 7 6 6 6 7 7 8 8 9 9 10 11 12 12 13 14 15 14 15 16 18 19 19 19 19 19 19 18 18 17
12 13 14 14 14 14 13 12 12 11 11 9 9 8 7 7 7 7 7 7 7 8 9 10 10 11 12 13 14 14 15 15 16 18 18 19 20 20 20 19 19 18 18
13 13 14 14 14 14 13 12 12 12 11 10 10 9 8 8 8 7 7 7 8 8 8 9 10 10 12 12 13 14 15 16 15 17 19 19 20 20 20 20 19 19 18
13 13 14 14 14 14 13 13 13 12 12 11 11 10 8 8 8 8 8 7 8 8 8 8 9 10 11 12 13 14 15 16 17 16 19 21 21 21 21 21 20 20 20
13 13 14 14 14 14 14 13 13 13 12 12 12 11 9 9 8 8 8 8 8 8 8 8 8 9 11 12 13 14 15 16 17 17 19 21 23 23 23 23 22 22 21
13 13 14 14 15 14 14 14 13 13 13 12 12 11 11 10 9 9 9 9 9 9 8 8 8 9 9 11 13 14 16 16 17 18 18 20 23 25 23 24 24 23 22
12 13 14 15 14 14 14 14 13 13 13 13 12 12 11 11 10 10 10 9 9 9 8 8 8 9 9 11 12 14 15 16 17 18 17 17 21 24 24 24 25 24 24
12 13 14 15 15 14 14 14 14 13 14 14 13 13 12 12 11 11 10 10 10 10 10 9 9 9 9 10 11 13 14 15 16 18 18 18 21 23 23 24 24 25 24
12 13 14 15 15 15 15 15 14 14 14 15 15 14 13 13 12 12 11 11 10 10 10 10 10 10 9 10 10 12 13 14 16 17 18 19 20 21 23 24 25 25 26
13 14 15 15 16 15 15 15 15 16 16 16 15 14 14 14 14 13 13 12 12 11 11 11 10 10 10 10 10 11 12 14 15 17 18 19 20 21 22 24 25 26 27
14 15 15 15 16 16 16 16 16 17 17 17 16 15 15 15 15 14 14 13 13 12 12 12 11 11 11 11 11 12 12 14 15 17 18 19 20 21 22 24 25 25 26
14 15 16 16 16 16 16 17 18 18 18 17 17 17 17 16 16 15 15 14 13 13 13 13 12 12 12 13 13 13 13 14 16 17 19 19 20 22 22 23 24 24 26
15 15 16 16 17 17 17 18 19 19 18 18 18 18 18 17 17 16 16 15 15 14 14 14 13 13 13 14 14 15 15 16 16 17 18 20 20 22 23 23 24 25 26
15 16 16 17 17 18 18 19 19 19 19 20 20 20 19 18 18 17 17 17 16 15 14 13 14 14 14 14 15 16 17 17 18 18 19 20 21 21 23 24 24 26 27
16 17 17 18 18 19 19 20 21 21 21 21 21 20 20 19 19 18 17 17 16 15 14 14 14 15 15 16 17 17 18 19 19 20 20 21 22 23 24 24 25 26 27
18 18 18 19 19 20 20 21 22 22 22 21 21 21 21 20 19 18 18 18 17 16 16 15 16 16 16 17 18 19 19 20 21 21 22 22 24 25 26 27 26 27 27
19 19 19 20 20 20 21 22 23 22 22 22 23 22 21 20 19 19 18 18 17 17 17 17 17 17 18 18 19 20 21 21 22 22 22 23 24 25 26 28 29 29 29
20 20 20 20 21 22 23 24 24 23 24 24 24 23 22 21 20 19 19 18 18 18 18 18 18 19 20 20 21 21 22 23 23 24 24 25 25 26 26 27 29 30 31
21 21 21 22 22 23 24 24 25 25 25 25 25 24 23 22 21 20 20 20 20 20 20 20 21 22 23 23 24 24 25 25 26 26 27 27 27 28 28 28 29 30 31
23 23 23 23 24 25 25 26 26 26 26 26 25 25 25 24 23 23 22 23 23 23 23 23 24 25 27 28 28 28 28 29 29 29 30 30 30 30 30 30 31 32 33
24 24 24 25 26 26 26 26 27 27 28 27 27 27 27 26 26 26 25 25 26 26 27 27 28 29 30 31 31 32 32 32 33 33 33 33 35 34 34 34 35 36 36
25 25 26 26 27 27 28 28 29 30 30 30 29 29 29 28 28 29 29 29 29 30 30 31 32 33 33 33 34 34 35 35 36 37 37 37 37 37 38 38 38 39 39
27 27 28 28 28 29 30 31 31 31 31 31 31 31 31 31 31 31 32 32 32 33 34 34 35 35 36 36 37 38 38 38 38 38 40 40 40 40 40 40 41 41 42
28 29 29 30 30 31 32 33 33 33 33 33 34 33 33 33 34 34 35 35 35 36 37 37 38 38 39 40 41 41 41 42 41 41 42 43 42 42 42 43 43 43 43
Wind_Direction
3 3 3 1 1 359 357 355 354 351 346 340 335 326 317 303 288 281 278 277 273 269 264 261 260 255 247 243 242 241 242 239 230 225 223 218 214 213 211 211 211 205 201
4 3 3 2 1 1 359 358 357 355 354 351 345 337 328 314 299 291 285 281 277 273 267 264 261 254 249 242 243 240 241 235 228 223 222 220 217 215 215 215 210 207 205
4 2 2 1 0 360 359 359 360 0 358 354 349 341 335 328 315 303 294 287 283 277 270 265 261 256 249 241 241 239 238 228 223 221 221 217 216 213 210 211 209 206 206
3 3 3 2 1 2 3 3 3 1 360 357 352 348 339 330 323 314 305 295 290 283 275 268 263 258 250 245 242 239 236 231 227 223 221 217 216 214 212 210 211 209 209
4 3 3 2 3 4 5 5 5 3 1 358 353 348 341 334 326 320 313 304 298 289 281 271 265 258 250 246 243 242 238 232 230 225 222 220 219 217 215 212 212 212 211
3 1 1 2 2 3 3 3 2 1 0 359 357 353 345 340 332 327 320 311 305 297 287 277 268 261 253 248 245 241 238 234 235 232 227 223 222 220 216 215 215 215 214
358 358 358 358 360 1 1 359 359 358 357 355 354 353 351 345 335 329 322 317 311 304 292 283 276 268 260 252 246 242 238 235 236 236 235 229 224 221 220 219 219 217 218
354 355 355 355 355 357 357 356 356 357 356 354 351 349 347 343 338 333 327 322 318 311 300 291 284 275 267 256 246 242 239 237 237 238 237 232 226 224 223 223 223 222 222
351 353 355 355 354 355 355 354 353 353 353 352 350 347 345 342 339 335 333 325 318 314 307 297 289 281 273 262 251 242 241 240 239 238 238 231 226 226 228 228 224 224 226
347 350 352 353 353 352 351 351 352 351 349 347 345 342 340 339 335 331 327 324 319 312 307 301 292 285 277 267 258 250 246 242 239 237 234 230 229 229 229 228 227 228 229
344 347 347 349 349 348 348 348 347 346 343 341 339 337 335 334 331 328 326 322 318 313 306 300 297 289 282 273 264 257 252 248 244 239 234 233 232 231 230 230 229 231 232
338 341 343 345 346 346 345 343 343 341 338 336 335 333 330 327 325 322 318 316 315 312 308 301 296 289 282 277 270 262 256 251 250 246 239 236 237 236 233 233 233 234 235
331 334 337 339 341 341 341 340 338 337 335 333 331 329 326 324 321 317 312 309 310 308 306 303 296 289 282 275 271 267 261 256 254 250 247 243 241 241 239 237 237 238 237
327 330 333 335 337 337 337 337 336 334 333 331 328 326 324 321 318 315 313 309 306 303 301 298 295 291 285 276 272 270 265 261 257 254 252 251 248 246 244 240 240 240 239
322 325 327 329 331 332 334 334 334 333 331 329 327 324 321 319 316 313 310 309 306 303 300 297 291 289 286 279 274 272 269 265 262 258 255 254 252 250 249 249 244 242 241
318 321 323 325 327 328 329 330 330 329 327 325 325 323 321 317 313 309 307 307 304 301 298 295 290 287 285 279 275 273 271 268 266 262 260 258 256 255 254 253 252 248 246
314 317 319 321 323 324 326 327 328 326 325 324 324 323 321 318 314 309 307 305 302 297 294 293 291 289 285 281 277 275 274 270 268 266 263 263 261 258 256 255 254 253 252
310 312 315 317 319 321 323 324 324 324 324 323 323 322 320 318 315 311 308 303 299 296 292 290 291 289 287 284 280 277 275 272 270 268 267 267 265 263 260 257 255 254 254
308 309 310 312 314 316 318 320 322 322 322 321 321 321 320 317 315 311 308 304 300 297 293 290 290 289 288 286 283 279 277 273 271 269 268 269 269 267 265 260 257 256 255
306 308 308 309 311 312 315 317 318 319 319 319 318 318 318 316 313 310 307 305 301 299 297 293 292 291 290 288 286 282 278 275 272 270 269 269 270 269 268 264 260 258 257
303 305 305 305 308 310 312 314 316 316 316 315 314 314 315 313 310 308 305 303 301 299 297 295 293 291 290 289 287 284 281 277 274 272 270 269 269 269 266 264 261 259 258
301 302 302 302 305 307 310 311 312 313 313 312 310 310 309 308 305 304 303 300 298 295 294 294 293 291 290 289 287 285 282 278 276 274 272 270 269 268 266 264 263 261 259
297 299 299 301 302 304 306 307 309 311 311 310 309 307 306 304 302 300 299 298 296 294 293 293 292 291 290 288 286 285 283 280 277 275 274 272 269 268 265 263 262 261 260
297 298 298 299 301 303 304 306 307 308 309 309 308 306 304 301 299 298 296 295 294 293 292 292 291 290 289 288 287 285 283 281 278 276 275 273 270 268 266 264 263 262 261
295 296 297 298 300 302 303 304 305 306 306 306 306 305 302 300 298 297 295 294 293 293 293 292 292 291 290 288 287 286 285 282 280 277 275 274 271 269 266 264 263 262 261
295 296 296 297 299 301 302 304 304 304 304 304 304 303 301 299 297 296 295 294 293 292 292 292 291 291 290 288 287 286 284 283 280 278 276 274 273 271 268 265 264 263 262
Height
5883 5881 5878 5876 5874 5871 5869 5867 5865 5863 5862 5861 5860 5860 5860 5860 5860 5861 5861 5861 5861 5862 5863 5864 5865 5866 5867 5869 5870 5872 5873 5873 5875 5878 5881 5884 5887 5890 5892 5895 5898 5900 5903
5882 5880 5878 5876 5873 5871 5869 5867 5865 5863 5861 5860 5859 5858 5858 5858 5858 5859 5859 5859 5859 5860 5861 5862 5863 5864 5865 5867 5868 5869 5870 5870 5872 5875 5879 5882 5885 5888 5890 5893 5895 5899 5902
5882 5880 5878 5876 5873 5871 5868 5866 5864 5862 5861 5860 5858 5858 5857 5856 5857 5857 5857 5857 5858 5858 5858 5859 5860 5861 5862 5864 5865 5867 5868 5868 5871 5873 5876 5879 5882 5885 5888 5890 5893 5897 5900
5882 5880 5878 5876 5873 5871 5868 5866 5864 5863 5861 5859 5858 5857 5857 5856 5856 5855 5855 5856 5856 5856 5856 5857 5858 5859 5860 5862 5863 5865 5866 5867 5869 5872 5874 5877 5880 5883 5885 5888 5892 5895 5899
5882 5880 5878 5876 5873 5871 5868 5866 5865 5863 5861 5859 5858 5857 5856 5855 5855 5854 5854 5854 5854 5854 5854 5855 5855 5856 5857 5859 5860 5862 5864 5866 5867 5869 5872 5875 5878 5880 5883 5887 5890 5893 5896
5882 5880 5878 5876 5873 5871 5869 5867 5865 5863 5861 5859 5858 5856 5855 5854 5854 5853 5853 5853 5852 5852 5852 5853 5853 5854 5855 5856 5858 5859 5861 5863 5865 5867 5870 5872 5875 5878 5881 5884 5888 5891 5894
5882 5880 5878 5876 5873 5871 5869 5867 5865 5863 5861 5859 5857 5856 5855 5854 5853 5852 5851 5851 5851 5850 5850 5851 5851 5852 5852 5853 5855 5857 5858 5860 5862 5865 5867 5869 5871 5874 5878 5881 5885 5888 5891
5882 5880 5878 5876 5873 5871 5869 5867 5864 5862 5861 5859 5857 5856 5854 5854 5852 5851 5850 5850 5849 5849 5848 5849 5849 5849 5850 5851 5852 5854 5855 5857 5859 5861 5862 5863 5866 5870 5874 5878 5881 5884 5888
5882 5880 5877 5875 5873 5871 5868 5866 5864 5862 5860 5858 5857 5855 5854 5852 5851 5850 5849 5848 5847 5847 5846 5846 5847 5847 5847 5848 5849 5851 5852 5854 5856 5858 5859 5859 5863 5867 5871 5874 5877 5881 5884
5881 5879 5877 5874 5872 5870 5868 5866 5863 5861 5859 5857 5856 5854 5852 5851 5850 5849 5848 5846 5845 5845 5844 5844 5844 5844 5845 5845 5846 5848 5849 5851 5853 5855 5856 5857 5860 5864 5867 5870 5873 5877 5880
5880 5878 5876 5874 5871 5869 5867 5865 5863 5860 5858 5856 5854 5852 5850 5849 5847 5846 5845 5844 5843 5843 5842 5842 5842 5842 5842 5843 5843 5845 5846 5848 5850 5851 5853 5855 5857 5860 5863 5866 5869 5872 5875
5879 5877 5875 5873 5870 5868 5866 5864 5861 5859 5857 5854 5852 5850 5848 5847 5845 5844 5843 5842 5841 5840 5839 5839 5839 5839 5839 5840 5841 5842 5843 5845 5846 5848 5850 5852 5854 5857 5859 5862 5864 5867 5870
5878 5876 5874 5871 5869 5867 5864 5862 5860 5857 5855 5852 5850 5848 5846 5844 5842 5840 5839 5838 5837 5837 5836 5836 5836 5836 5836 5837 5837 5838 5840 5841 5843 5844 5846 5848 5850 5852 5855 5857 5859 5862 5864
5876 5874 5872 5869 5867 5865 5862 5860 5857 5855 5852 5849 5847 5845 5842 5840 5838 5837 5835 5835 5834 5834 5833 5833 5832 5832 5832 5833 5834 5835 5836 5837 5839 5840 5842 5844 5846 5848 5850 5852 5854 5856 5859
5873 5872 5870 5867 5865 5863 5860 5858 5855 5852 5849 5846 5844 5841 5838 5836 5834 5832 5831 5830 5830 5830 5830 5829 5829 5828 5828 5829 5830 5831 5832 5833 5834 5836 5837 5839 5841 5843 5844 5846 5848 5851 5853
5871 5869 5867 5865 5862 5860 5858 5855 5852 5849 5846 5843 5840 5836 5834 5831 5830 5828 5827 5826 5825 5824 5825 5824 5824 5824 5824 5825 5826 5826 5827 5828 5829 5831 5832 5834 5836 5837 5839 5840 5842 5844 5847
5868 5866 5864 5862 5860 5857 5855 5852 5849 5845 5842 5839 5836 5833 5830 5827 5825 5823 5822 5821 5819 5819 5820 5820 5819 5820 5820 5820 5821 5821 5822 5823 5824 5825 5827 5828 5830 5831 5832 5834 5836 5838 5840
5864 5862 5860 5858 5856 5854 5851 5848 5845 5842 5839 5835 5832 5829 5826 5823 5820 5818 5817 5815 5815 5814 5815 5815 5815 5815 5815 5815 5815 5816 5817 5818 5819 5820 5821 5822 5823 5824 5825 5826 5828 5831 5833
5860 5858 5856 5854 5852 5849 5847 5844 5841 5837 5834 5831 5828 5825 5821 5819 5816 5814 5812 5811 5810 5810 5810 5810 5810 5810 5810 5810 5810 5811 5811 5812 5813 5814 5815 5816 5816 5816 5817 5818 5820 5823 5825
5856 5854 5852 5850 5847 5845 5842 5839 5836 5833 5830 5826 5823 5820 5817 5814 5812 5810 5808 5807 5806 5805 5805 5805 5805 5805 5805 5804 5804 5805 5805 5806 5806 5807 5808 5809 5809 5809 5810 5810 5812 5815 5817
5851 5849 5847 5844 5842 5839 5837 5834 5830 5827 5824 5821 5818 5815 5812 5810 5807 5805 5804 5802 5801 5800 5800 5799 5799 5799 5798 5798 5798 5797 5798 5798 5799 5799 5800 5801 5801 5802 5802 5803 5804 5806 5808
5845 5843 5841 5839 5836 5833 5831 5827 5824 5821 5818 5815 5812 5810 5807 5804 5802 5800 5798 5797 5795 5794 5794 5793 5792 5791 5791 5790 5789 5789 5789 5790 5791 5791 5791 5792 5792 5793 5794 5795 5795 5797 5799
5839 5837 5835 5832 5830 5827 5824 5821 5818 5815 5812 5809 5806 5803 5800 5798 5795 5793 5792 5790 5789 5787 5786 5785 5784 5783 5782 5781 5780 5779 5779 5779 5780 5780 5781 5781 5781 5783 5784 5784 5785 5787 5788
5832 5830 5828 5825 5823 5820 5817 5814 5811 5808 5805 5802 5799 5796 5793 5790 5788 5786 5784 5783 5781 5779 5778 5776 5775 5773 5771 5770 5769 5769 5768 5768 5768 5768 5768 5769 5770 5771 5772 5773 5773 5775 5776
5825 5823 5820 5818 5815 5813 5810 5807 5803 5800 5797 5794 5791 5788 5785 5782 5780 5777 5775 5774 5772 5770 5768 5766 5764 5762 5760 5759 5757 5757 5756 5756 5756 5756 5755 5755 5757 5758 5759 5760 5760 5761 5763
5818 5815 5813 5810 5808 5805 5802 5798 5795 5792 5789 5786 5783 5779 5776 5773 5770 5767 5765 5763 5761 5759 5757 5754 5752 5750 5748 5746 5744 5743 5742 5741 5741 5742 5741 5741 5741 5742 5744 5746 5746 5746 5748